[TLELIST] Archives

 

Correction: Current TLEs <21 FEB 2006>

February 21st 2006 PDT

HST 1 20580U 90037B 06051.45917610 .00000411 00000-0 19293-4 0 5506 2 20580 28.4680 90.7772 0003598 28.0038 332.0786 14.99967051667552 ISS 1 25544U 98067A 06052.34767361 .00013949 00000-0 97127-4 0 3934 2 25544 51.6421 63.2734 0007415 308.6263 249.9177 15.74668600414901 CHANDRA 1 25867U 99040B 06051.41666667 .00000000 00000-0 00000+0 0 8925 2 25867 58.8126 99.1855 5726557 293.1355 0.0942 0.37796747 1211 FLOATING POTENTIAL PROBE 1 28 ...Continue Reading

Current TLEs <21 FEB 2006>

February 21st 2006 PDT

HST 1 20580U 90037B 06051.45917610 .00000411 00000-0 19293-4 0 5506 2 20580 28.4680 90.7772 0003598 28.0038 332.0786 14.99967051667552 ISS 1 25544U 98067A 06052.34767361 .00013949 00000-0 97127-4 0 3934 2 25544 51.6421 63.2734 0007415 308.6263 249.9177 15.74668600414901 CHANDRA 1 25867U 99040B 06051.41666667 .00000000 00000-0 00000+0 0 8925 2 25867 58.8126 99.1855 5726557 293.1355 0.0942 0.37796747 1211 FLOATING POTENTIAL PROBE 1 28 ...Continue Reading

Current TLEs <17 FEB 2006>

February 17th 2006 PDT

HST 1 20580U 90037B 06047.53346450 .00000373 00000-0 16291-4 0 5476 2 20580 28.4669 116.3735 0003574 339.8901 20.1549 14.99964456666961 ISS 1 25544U 98067A 06048.41057870 .00011335 00000-0 80169-4 0 3670 2 25544 51.6420 83.5080 0007484 291.9870 253.6691 15.74547456414282 CHANDRA 1 25867U 99040B 06046.12500000 .00000000 00000-0 00000+0 0 8903 2 25867 58.7842 99.3337 5719892 293.2015 359.6241 0.37797514 1218 FLOATING POTENTIAL PROBE 1 28 ...Continue Reading

Current TLEs <11 FEB 2006>

February 11th 2006 PDT

HST 1 20580U 90037B 06041.54508236 .00000445 00000-0 21884-4 0 5433 2 20580 28.4660 155.4038 0003772 277.1913 82.8246 14.99962144666061 ISS 1 25544U 98067A 06042.50957176 .00010107 00000-0 71617-4 0 3283 2 25544 51.6444 113.8305 0008529 263.6886 291.4369 15.74651218413350 CHANDRA 1 25867U 99040B 06040.83333333 .00000000 00000-0 00000+0 0 8885 2 25867 58.8093 99.3982 5707480 293.3932 359.1628 0.37784836 1219 FLOATING POTENTIAL PROBE 1 28 ...Continue Reading

Current TLEs <08 FEB 2006>

February 8th 2006 PDT

HST 1 20580U 90037B 06038.61742880 .00000433 00000-0 20937-4 0 5415 2 20580 28.4656 174.4870 0003906 247.5360 112.4817 14.99960264665623 ISS 1 25544U 98067A 06039.04754630 .00012267 00000-0 86242-4 0 3063 2 25544 51.6431 131.6231 0008900 250.2399 106.7655 15.74576017412804 CHANDRA 1 25867U 99040B 06038.20833333 .00000000 00000-0 00000+0 0 8877 2 25867 58.8017 99.4102 5708439 293.5050 1.7480 0.37791053 1213 FLOATING POTENTIAL PROBE 1 28 ...Continue Reading

Current TLEs <31 JAN 2006>

January 31st 2006 PDT

HST 1 20580U 90037B 06030.63291358 .00000551 00000-0 30254-4 0 5355 2 20580 28.4655 226.5276 0004116 166.9224 193.1703 14.99956737664425 ISS 1 25544U 98067A 06031.84003270 .00010613 00000-0 75841-4 0 2593 2 25544 51.6437 168.6570 0009319 218.2563 298.0884 15.74377303411678 CHANDRA 1 25867U 99040B 06030.25000000 .00000000 00000-0 00000+0 0 8848 2 25867 58.7476 99.6450 5697731 293.5512 358.4413 0.37786914 1212 FLOATING POTENTIAL PROBE 1 28 ...Continue Reading

Current TLEs <29 JAN 2006>

January 29th 2006 PDT

HST 1 20580U 90037B 06028.90293207 .00000534 00000-0 28901-4 0 5343 2 20580 28.4685 237.8261 0003816 149.5849 210.4962 14.99955281664167 ISS 1 25544U 98067A 06029.48268122 .00013031 00000-0 92273-4 0 2437 2 25544 51.6430 180.7663 0009471 208.7523 257.9172 15.74330014411300 CHANDRA 1 25867U 99040B 06027.62500000 .00000000 00000-0 00000+0 0 8839 2 25867 58.7583 99.6469 5688774 293.6928 1.0166 0.37780191 1217 FLOATING POTENTIAL PROBE 1 28 ...Continue Reading

Current TLEs <24 JAN 2006>

January 24th 2006 PDT

HST 1 20580U 90037B 06024.04566406 .00000470 00000-0 23919-4 0 5318 2 20580 28.4693 269.4779 0003644 98.5913 261.5088 14.99951697663437 ISS 1 25544U 98067A 06024.15983796 .00009168 00000-0 66635-4 0 2098 2 25544 51.6437 208.1059 0010082 188.0981 331.9303 15.74185717410462 CHANDRA 1 25867U 99040B 06022.29166667 .00000000 00000-0 00000+0 0 8812 2 25867 58.7199 99.6827 5688121 293.9230 354.7928 0.37797721 1214 FLOATING POTENTIAL PROBE 1 28 ...Continue Reading

Current TLEs <16 JAN 2006>

January 16th 2006 PDT

HST 1 20580U 90037B 06015.19607880 .00000562 00000-0 31192-4 0 5253 2 20580 28.4699 327.1410 0003595 4.4020 355.6550 14.99947400662106 ISS 1 25544U 98067A 06016.15721588 .00010383 00000-0 75316-4 0 1612 2 25544 51.6453 249.2046 0010651 158.8086 341.4837 15.74039619409202 CHANDRA 1 25867U 99040B 06014.41666667 .00000000 00000-0 00000+0 0 8788 2 25867 58.7259 99.8040 5676704 294.1816 2.5900 0.37781945 1216 FLOATING POTENTIAL PROBE 1 28 ...Continue Reading

Current TLEs <14 JAN 2006>

January 14th 2006 PDT

HST 1 20580U 90037B 06014.06492740 .00000576 00000-0 32279-4 0 5246 2 20580 28.4699 334.5116 0003591 352.4141 7.6390 14.99946720661937 ISS 1 25544U 98067A 06015.01449657 .00010775 00000-0 78067-4 0 1543 2 25544 51.6442 255.0702 0010759 154.4553 346.2629 15.74016103409029 CHANDRA 1 25867U 99040B 06014.41666667 .00000000 00000-0 00000+0 0 8788 2 25867 58.7259 99.8040 5676704 294.1816 2.5900 0.37781945 1216 FLOATING POTENTIAL PROBE 1 28 ...Continue Reading
  • This mailing list is a public mailing list - anyone may join or leave, at any time.
  • This mailing list is announce-only.

International Space Station (ISS) / Hubble Space Telescope (HST) / Chandra X-Ray Observatory Orbital Data via EMAIL

Privacy Policy:

Private list